Location: Bartlow
(52.0833°N, 0.3167°E)
Time: 05:18:58
(UTC+00:00)

Meteor 2-17 Rocket - Pass Details

Date: 01 May 2024
Orbit: 934 x 957 km, 82.5° (Epoch: 25 May)

Event Time Altitude Azimuth Distance (km) Brightness Sun altitude
Exits shadow 23:56:27 32° 132° (SE) 1,573 5.2 -22.5°
Maximum altitude 23:58:30 42° 90° (E) 1,329 5.2 -22.4°
Drops below altitude 10° 00:04:09 10° 22° (NNE) 2,664 7.8 -22.4°
Sets 00:06:45 0° 15° (NNE) 3,610 8.9 -22.4°
